Location: Ferintosh
(52.7647°N, 112.9692°W)
Time: 22:39:24
(UTC+00:00)

Vanguard 1 Rocket - Pass Details

Date: 25 May 2024
Orbit: 649 x 4221 km, 34.3° (Epoch: 13 June)

Event Time Altitude Azimuth Distance (km) Brightness Sun altitude
Rises 19:54:25 0° 263° (W) 7,213 12.1 58.0°
Reaches altitude 10° 20:00:59 10° 253° (WSW) 5,545 11.8 57.8°
Maximum altitude 20:11:51 25° 207° (SSW) 3,199 11.3 57.3°
Drops below altitude 10° 20:18:42 10° 155° (SSE) 3,372 10.8 57.0°
Sets 20:21:34 0° 142° (SE) 3,977 10.9 56.8°
